| time (UTC) | temp F | wind direction | speed knots | gust knots | rain 1hr in | rain 24hr in | rain mn in | humidity % | barometer mb |
| 20260906052358 | 76 | 74 | 0.0 | 0.0 | 0.00 | 0.00 | 0.00 | 60 | 1014.5 |
| 20260906051856 | 76 | 74 | 0.0 | 0.0 | 0.00 | 0.00 | 0.00 | 60 | 1014.6 |
| 20260906050858 | 76 | 74 | 0.0 | 0.0 | 0.00 | 0.00 | 0.00 | 60 | 1014.6 |
| 20260906050352 | 76 | 74 | 0.0 | 0.0 | 0.00 | 0.00 | 0.00 | 60 | 1014.7 |
| 20260906045848 | 76 | 74 | 0.0 | 0.0 | 0.00 | 0.00 | 0.00 | 59 | 1014.6 |
| 20260906045346 | 76 | 74 | 0.0 | 0.0 | 0.00 | 0.00 | 0.00 | 59 | 1014.7 |
| 20260906044341 | 76 | 74 | 0.0 | 0.0 | 0.00 | 0.00 | 0.00 | 59 | 1014.6 |
| 20260906043839 | 77 | 74 | 0.0 | 0.0 | 0.00 | 0.00 | 0.00 | 59 | 1014.7 |
| 20260906043337 | 77 | 74 | 0.0 | 0.0 | 0.00 | 0.00 | 0.00 | 58 | 1014.6 |
| 20260906042835 | 77 | 74 | 0.0 | 0.0 | 0.00 | 0.00 | 0.00 | 59 | 1014.6 |
| 20260906042333 | 77 | 74 | 0.0 | 0.0 | 0.00 | 0.00 | 0.00 | 58 | 1014.6 |
| 20260906041833 | 77 | 74 | 0.0 | 0.0 | 0.00 | 0.00 | 0.00 | 58 | 1014.5 |
| 20260906041333 | 77 | 74 | 0.0 | 0.0 | 0.00 | 0.00 | 0.00 | 58 | 1014.6 |
| 20260906040833 | 77 | 74 | 0.0 | 0.0 | 0.00 | 0.00 | 0.00 | 58 | 1014.6 |
| 20260906040329 | 78 | 74 | 0.0 | 0.0 | 0.00 | 0.00 | 0.00 | 58 | 1014.5 |
| 20260906034828 | 78 | 74 | 0.0 | 0.0 | 0.00 | 0.00 | 0.00 | 58 | 1014.1 |
| 20260906034328 | 78 | 74 | 0.0 | 0.0 | 0.00 | 0.00 | 0.00 | 58 | 1014.0 |
| 20260906033829 | 78 | 74 | 0.0 | 0.0 | 0.00 | 0.00 | 0.00 | 57 | 1014.0 |
| 20260906033329 | 78 | 74 | 0.0 | 0.0 | 0.00 | 0.00 | 0.00 | 57 | 1014.1 |
| 20260906032834 | 78 | 74 | 0.0 | 0.0 | 0.00 | 0.00 | 0.00 | 57 | 1014.1 |
| 20260906032322 | 79 | 74 | 0.0 | 0.0 | 0.00 | 0.00 | 0.00 | 57 | 1014.1 |
| 20260906031816 | 79 | 74 | 0.0 | 0.0 | 0.00 | 0.00 | 0.00 | 57 | 1014.2 |
| 20260906031310 | 79 | 74 | 0.0 | 0.0 | 0.00 | 0.00 | 0.00 | 57 | 1014.1 |
| 20260906030803 | 79 | 74 | 0.0 | 0.0 | 0.00 | 0.00 | 0.00 | 57 | 1014.1 |
| 20260906030308 | 79 | 74 | 0.0 | 0.0 | 0.00 | 0.00 | 0.00 | 56 | 1014.1 |
| 20260906024801 | 79 | 67 | 0.0 | 0.0 | 0.00 | 0.00 | 0.00 | 56 | 1013.9 |
| 20260906023801 | 79 | 67 | 0.0 | 0.0 | 0.00 | 0.00 | 0.00 | 56 | 1013.6 |
| 20260906023301 | 79 | 67 | 0.0 | 0.0 | 0.00 | 0.00 | 0.00 | 55 | 1013.6 |
| 20260906022801 | 80 | 67 | 0.0 | 0.0 | 0.00 | 0.00 | 0.00 | 55 | 1013.9 |
| 20260906021259 | 80 | 67 | 0.0 | 0.0 | 0.00 | 0.00 | 0.00 | 54 | 1013.8 |
| 20260906020759 | 80 | 67 | 0.0 | 0.0 | 0.00 | 0.00 | 0.00 | 54 | 1013.8 |
| 20260906020256 | 80 | 67 | 0.0 | 0.0 | 0.00 | 0.00 | 0.00 | 54 | 1013.8 |
| 20260906015755 | 80 | 67 | 0.0 | 0.0 | 0.00 | 0.00 | 0.00 | 54 | 1013.9 |
| 20260906015301 | 80 | 67 | 0.0 | 0.0 | 0.00 | 0.00 | 0.00 | 54 | 1013.9 |
| 20260906014754 | 81 | 67 | 0.0 | 0.0 | 0.00 | 0.00 | 0.00 | 54 | 1013.9 |
| 20260906013759 | 81 | 67 | 0.0 | 0.0 | 0.00 | 0.00 | 0.00 | 53 | 1014.0 |
| 20260906013255 | 81 | 67 | 0.0 | 0.0 | 0.00 | 0.00 | 0.00 | 53 | 1014.0 |
| 20260906012754 | 81 | 67 | 0.0 | 0.0 | 0.00 | 0.00 | 0.00 | 52 | 1013.9 |
| 20260906012250 | 82 | 67 | 0.0 | 0.0 | 0.00 | 0.00 | 0.00 | 52 | 1013.8 |
| 20260906011247 | 82 | 67 | 0.0 | 0.9 | 0.00 | 0.00 | 0.00 | 51 | 1013.6 |
| 20260906010743 | 82 | 67 | 0.0 | 1.7 | 0.00 | 0.00 | 0.00 | 51 | 1013.6 |
| 20260906010242 | 82 | 67 | 0.0 | 1.7 | 0.00 | 0.00 | 0.00 | 51 | 1013.3 |
| 20260906005740 | 83 | 67 | 0.0 | 0.9 | 0.00 | 0.00 | 0.00 | 51 | 1013.3 |
| 20260906005239 | 83 | 67 | 0.0 | 0.9 | 0.00 | 0.00 | 0.00 | 50 | 1013.4 |
| 20260906004736 | 83 | 67 | 0.0 | 0.9 | 0.00 | 0.00 | 0.00 | 50 | 1013.3 |
| 20260906004234 | 83 | 67 | 0.0 | 0.9 | 0.00 | 0.00 | 0.00 | 49 | 1013.3 |
| 20260906003732 | 84 | 67 | 0.0 | 0.9 | 0.00 | 0.00 | 0.00 | 49 | 1013.2 |
| 20260906003230 | 84 | 67 | 0.9 | 2.6 | 0.00 | 0.00 | 0.00 | 48 | 1013.4 |
| 20260906002728 | 84 | 67 | 0.9 | 3.5 | 0.00 | 0.00 | 0.00 | 48 | 1013.3 |
| 20260906002228 | 84 | 65 | 0.9 | 3.5 | 0.00 | 0.00 | 0.00 | 48 | 1013.1 |
| 20260906001728 | 85 | 72 | 0.0 | 1.7 | 0.00 | 0.00 | 0.00 | 48 | 1013.2 |
| 20260906001236 | 85 | 72 | 0.0 | 0.0 | 0.00 | 0.00 | 0.00 | 47 | 1013.2 |
| 20260906000241 | 86 | 72 | 0.0 | 0.9 | 0.00 | 0.00 | 0.00 | 47 | 1013.1 |
| 20260905235734 | 86 | 72 | 0.0 | 1.7 | 0.00 | 0.00 | 0.00 | 46 | 1013.3 |
| 20260905235229 | 86 | 72 | 0.9 | 3.5 | 0.00 | 0.00 | 0.00 | 45 | 1013.6 |
| 20260905234726 | 87 | 72 | 0.9 | 3.5 | 0.00 | 0.00 | 0.00 | 45 | 1013.6 |
| 20260905234217 | 87 | 71 | 1.7 | 3.5 | 0.00 | 0.00 | 0.00 | 44 | 1013.9 |
| 20260905233715 | 88 | 74 | 0.9 | 3.5 | 0.00 | 0.00 | 0.00 | 44 | 1013.8 |
| 20260905232708 | 89 | 255 | 0.0 | 3.5 | 0.00 | 0.00 | 0.00 | 44 | 1013.6 |
| 20260905232208 | 89 | 255 | 0.0 | 3.5 | 0.00 | 0.00 | 0.00 | 43 | 1013.6 |
| 20260905231708 | 90 | 297 | 0.0 | 0.0 | 0.00 | 0.00 | 0.00 | 45 | 1013.6 |
| 20260905231204 | 90 | 297 | 0.0 | 0.0 | 0.00 | 0.00 | 0.00 | 44 | 1013.8 |
| 20260905230702 | 90 | 297 | 0.0 | 0.0 | 0.00 | 0.00 | 0.00 | 43 | 1013.5 |
| 20260905230202 | 90 | 297 | 0.0 | 0.9 | 0.00 | 0.00 | 0.00 | 43 | 1013.5 |
| 20260905225701 | 90 | 297 | 0.0 | 1.7 | 0.00 | 0.00 | 0.00 | 41 | 1013.5 |
| 20260905225201 | 90 | 315 | 0.9 | 2.6 | 0.00 | 0.00 | 0.00 | 41 | 1013.5 |
| 20260905224702 | 90 | 292 | 0.0 | 2.6 | 0.00 | 0.00 | 0.00 | 41 | 1013.3 |
| 20260905224200 | 91 | 277 | 0.9 | 1.7 | 0.00 | 0.00 | 0.00 | 41 | 1013.3 |
| 20260905223701 | 91 | 277 | 0.9 | 5.2 | 0.00 | 0.00 | 0.00 | 40 | 1013.5 |
| 20260905223201 | 91 | 279 | 0.9 | 5.2 | 0.00 | 0.00 | 0.00 | 40 | 1013.4 |
| 20260905222701 | 91 | 328 | 0.9 | 2.6 | 0.00 | 0.00 | 0.00 | 40 | 1013.4 |
| 20260905222201 | 91 | 309 | 0.9 | 2.6 | 0.00 | 0.00 | 0.00 | 40 | 1013.5 |
| 20260905221701 | 91 | 304 | 0.9 | 2.6 | 0.00 | 0.00 | 0.00 | 40 | 1013.4 |
| 20260905221202 | 91 | 321 | 1.7 | 5.2 | 0.00 | 0.00 | 0.00 | 39 | 1013.4 |
| 20260905220659 | 91 | 315 | 1.7 | 5.2 | 0.00 | 0.00 | 0.00 | 39 | 1013.4 |
| 20260905220151 | 92 | 292 | 0.9 | 3.5 | 0.00 | 0.00 | 0.00 | 39 | 1013.4 |
| 20260905215646 | 92 | 341 | 0.9 | 2.6 | 0.00 | 0.00 | 0.00 | 39 | 1013.3 |
| 20260905215140 | 92 | 329 | 0.9 | 3.5 | 0.00 | 0.00 | 0.00 | 38 | 1013.4 |
| 20260905214638 | 92 | 338 | 0.9 | 3.5 | 0.00 | 0.00 | 0.00 | 38 | 1013.4 |
| 20260905213636 | 92 | 5 | 0.9 | 1.7 | 0.00 | 0.00 | 0.00 | 38 | 1013.4 |
| 20260905212135 | 92 | 286 | 0.9 | 6.1 | 0.00 | 0.00 | 0.00 | 37 | 1013.3 |
| 20260905211634 | 92 | 306 | 0.9 | 6.1 | 0.00 | 0.00 | 0.00 | 37 | 1013.3 |
| 20260905210636 | 93 | 290 | 0.9 | 4.3 | 0.00 | 0.00 | 0.00 | 38 | 1013.2 |
| 20260905210134 | 93 | 52 | 0.9 | 4.3 | 0.00 | 0.00 | 0.00 | 37 | 1013.1 |
| 20260905205633 | 93 | 277 | 0.0 | 0.0 | 0.00 | 0.00 | 0.00 | 37 | 1013.2 |
| 20260905205131 | 93 | 277 | 0.0 | 0.9 | 0.00 | 0.00 | 0.00 | 37 | 1013.2 |
| 20260905204632 | 93 | 268 | 0.0 | 0.9 | 0.00 | 0.00 | 0.00 | 36 | 1013.3 |
| 20260905203635 | 93 | 261 | 0.9 | 3.5 | 0.00 | 0.00 | 0.00 | 35 | 1013.3 |
| 20260905203130 | 93 | 318 | 0.9 | 3.5 | 0.00 | 0.00 | 0.00 | 36 | 1013.3 |
| 20260905201628 | 93 | 321 | 0.9 | 4.3 | 0.00 | 0.00 | 0.00 | 34 | 1013.8 |
| 20260905201123 | 93 | 293 | 0.9 | 2.6 | 0.00 | 0.00 | 0.00 | 36 | 1013.9 |
| 20260905200615 | 93 | 17 | 0.0 | 2.6 | 0.00 | 0.00 | 0.00 | 36 | 1013.9 |
| 20260905200114 | 93 | 88 | 0.0 | 1.7 | 0.00 | 0.00 | 0.00 | 38 | 1013.9 |
| 20260905195614 | 92 | 88 | 0.0 | 1.7 | 0.00 | 0.00 | 0.00 | 37 | 1014.1 |
| 20260905195112 | 92 | 82 | 0.0 | 0.0 | 0.00 | 0.00 | 0.00 | 37 | 1014.2 |
| 20260905194610 | 92 | 82 | 0.0 | 1.7 | 0.00 | 0.00 | 0.00 | 38 | 1014.2 |
| 20260905194108 | 92 | 82 | 0.0 | 1.7 | 0.00 | 0.00 | 0.00 | 38 | 1014.4 |
| 20260905193610 | 92 | 252 | 0.9 | 2.6 | 0.00 | 0.00 | 0.00 | 39 | 1014.5 |
| 20260905193108 | 92 | 252 | 0.9 | 2.6 | 0.00 | 0.00 | 0.00 | 37 | 1014.5 |
| 20260905192107 | 92 | 89 | 0.9 | 6.1 | 0.00 | 0.00 | 0.00 | 36 | 1014.5 |
| 20260905191105 | 92 | 148 | 0.0 | 3.5 | 0.00 | 0.00 | 0.00 | 37 | 1014.7 |
| 20260905190602 | 92 | 117 | 0.0 | 0.9 | 0.00 | 0.00 | 0.00 | 39 | 1014.7 |
| 20260905185603 | 92 | 117 | 0.0 | 2.6 | 0.00 | 0.00 | 0.00 | 40 | 1014.8 |
| 20260905185100 | 92 | 117 | 0.0 | 2.6 | 0.00 | 0.00 | 0.00 | 40 | 1014.8 |
| 20260905184601 | 92 | 115 | 0.0 | 2.6 | 0.00 | 0.00 | 0.00 | 39 | 1014.9 |
| 20260905184101 | 92 | 120 | 0.9 | 4.3 | 0.00 | 0.00 | 0.00 | 40 | 1015.0 |
| 20260905183606 | 92 | 121 | 0.9 | 4.3 | 0.00 | 0.00 | 0.00 | 40 | 1015.0 |
| 20260905183102 | 92 | 107 | 0.0 | 1.7 | 0.00 | 0.00 | 0.00 | 40 | 1015.0 |
| 20260905182558 | 92 | 106 | 0.9 | 1.7 | 0.00 | 0.00 | 0.00 | 40 | 1015.2 |
| 20260905182052 | 92 | 106 | 0.9 | 3.5 | 0.00 | 0.00 | 0.00 | 39 | 1015.2 |
| 20260905181546 | 92 | 141 | 0.9 | 4.3 | 0.00 | 0.00 | 0.00 | 37 | 1015.3 |
| 20260905181045 | 92 | 68 | 0.9 | 4.3 | 0.00 | 0.00 | 0.00 | 38 | 1015.4 |
| 20260905180047 | 92 | 97 | 0.9 | 2.6 | 0.00 | 0.00 | 0.00 | 39 | 1015.5 |
| 20260905175546 | 92 | 96 | 0.0 | 0.9 | 0.00 | 0.00 | 0.00 | 39 | 1015.5 |
| 20260905175046 | 92 | 115 | 0.9 | 1.7 | 0.00 | 0.00 | 0.00 | 38 | 1015.6 |
| 20260905174544 | 92 | 111 | 0.9 | 1.7 | 0.00 | 0.00 | 0.00 | 37 | 1015.7 |
| 20260905174044 | 92 | 111 | 0.0 | 1.7 | 0.00 | 0.00 | 0.00 | 38 | 1015.7 |
| 20260905173544 | 92 | 147 | 0.0 | 2.6 | 0.00 | 0.00 | 0.00 | 40 | 1015.7 |
| 20260905172542 | 91 | 149 | 0.9 | 3.5 | 0.00 | 0.00 | 0.00 | 38 | 1015.8 |
| 20260905172042 | 91 | 140 | 0.9 | 2.6 | 0.00 | 0.00 | 0.00 | 39 | 1015.9 |
| 20260905171540 | 91 | 113 | 0.0 | 2.6 | 0.00 | 0.00 | 0.00 | 41 | 1015.9 |
| 20260905171038 | 90 | 98 | 0.9 | 3.5 | 0.00 | 0.00 | 0.00 | 43 | 1015.9 |
| 20260905170042 | 90 | 105 | 0.9 | 2.6 | 0.00 | 0.00 | 0.00 | 40 | 1016.0 |
| 20260905165538 | 89 | 86 | 0.9 | 3.5 | 0.00 | 0.00 | 0.00 | 42 | 1016.1 |
| 20260905164536 | 89 | 117 | 0.9 | 2.6 | 0.00 | 0.00 | 0.00 | 44 | 1015.9 |
| 20260905164030 | 88 | 63 | 0.9 | 2.6 | 0.00 | 0.00 | 0.00 | 43 | 1015.8 |
| 20260905163529 | 88 | 105 | 0.9 | 2.6 | 0.00 | 0.00 | 0.00 | 43 | 1015.9 |
| 20260905163029 | 88 | 112 | 0.9 | 2.6 | 0.00 | 0.00 | 0.00 | 46 | 1015.9 |
| 20260905162030 | 87 | 110 | 0.9 | 2.6 | 0.00 | 0.00 | 0.00 | 47 | 1016.0 |
| 20260905161529 | 86 | 103 | 0.9 | 2.6 | 0.00 | 0.00 | 0.00 | 46 | 1016.0 |
| 20260905161029 | 86 | 117 | 0.9 | 2.6 | 0.00 | 0.00 | 0.00 | 47 | 1016.1 |
| 20260905160529 | 86 | 67 | 0.9 | 2.6 | 0.00 | 0.00 | 0.00 | 47 | 1016.2 |
| 20260905160029 | 85 | 99 | 0.9 | 4.3 | 0.00 | 0.00 | 0.00 | 48 | 1016.2 |
| 20260905155529 | 85 | 157 | 0.9 | 4.3 | 0.00 | 0.00 | 0.00 | 47 | 1016.3 |
| 20260905155029 | 85 | 111 | 0.9 | 2.6 | 0.00 | 0.00 | 0.00 | 49 | 1016.4 |
| 20260905154529 | 84 | 102 | 0.9 | 2.6 | 0.00 | 0.00 | 0.00 | 51 | 1016.5 |
| 20260905154035 | 83 | 154 | 0.9 | 2.6 | 0.00 | 0.00 | 0.00 | 50 | 1016.5 |
| 20260905153529 | 83 | 123 | 0.9 | 2.6 | 0.00 | 0.00 | 0.00 | 52 | 1016.5 |
| 20260905152529 | 82 | 130 | 0.9 | 3.5 | 0.00 | 0.00 | 0.00 | 53 | 1016.8 |
| 20260905152028 | 82 | 102 | 0.9 | 2.6 | 0.00 | 0.00 | 0.00 | 53 | 1016.7 |
| 20260905151028 | 80 | 57 | 1.7 | 4.3 | 0.00 | 0.00 | 0.00 | 54 | 1016.7 |
| 20260905150527 | 80 | 79 | 0.9 | 4.3 | 0.00 | 0.00 | 0.00 | 54 | 1016.9 |
| 20260905150028 | 80 | 58 | 0.9 | 2.6 | 0.00 | 0.00 | 0.00 | 54 | 1016.9 |
| 20260905145527 | 79 | 132 | 0.9 | 2.6 | 0.00 | 0.00 | 0.00 | 54 | 1017.0 |
| 20260905144527 | 78 | 149 | 0.9 | 3.5 | 0.00 | 0.00 | 0.00 | 54 | 1017.0 |
| 20260905144026 | 77 | 83 | 0.9 | 3.5 | 0.00 | 0.00 | 0.00 | 54 | 1017.0 |
| 20260905143527 | 76 | 94 | 0.9 | 5.2 | 0.00 | 0.00 | 0.00 | 53 | 1017.1 |
| 20260905143024 | 76 | 123 | 1.7 | 5.2 | 0.00 | 0.00 | 0.00 | 52 | 1017.2 |
| 20260905142525 | 75 | 79 | 1.7 | 3.5 | 0.00 | 0.00 | 0.00 | 52 | 1017.1 |
| 20260905141524 | 74 | 66 | 0.9 | 3.5 | 0.00 | 0.00 | 0.00 | 52 | 1017.4 |
| 20260905141023 | 73 | 79 | 0.9 | 3.5 | 0.00 | 0.00 | 0.00 | 53 | 1017.4 |
| 20260905140524 | 72 | 78 | 1.7 | 3.5 | 0.00 | 0.00 | 0.00 | 53 | 1017.4 |
| 20260905140023 | 72 | 101 | 0.9 | 4.3 | 0.00 | 0.00 | 0.00 | 53 | 1017.2 |
| 20260905135524 | 72 | 61 | 0.9 | 4.3 | 0.00 | 0.00 | 0.00 | 53 | 1017.5 |
| 20260905135024 | 72 | 130 | 0.0 | 2.6 | 0.00 | 0.00 | 0.00 | 54 | 1017.5 |
| 20260905134524 | 71 | 59 | 0.9 | 2.6 | 0.00 | 0.00 | 0.00 | 54 | 1017.5 |
| 20260905134024 | 71 | 59 | 0.9 | 4.3 | 0.00 | 0.00 | 0.00 | 54 | 1017.2 |
| 20260905133519 | 71 | 59 | 0.9 | 4.3 | 0.00 | 0.00 | 0.00 | 54 | 1017.5 |
| 20260905133020 | 71 | 82 | 0.9 | 4.3 | 0.00 | 0.00 | 0.00 | 54 | 1017.6 |
| 20260905132520 | 71 | 63 | 1.7 | 5.2 | 0.00 | 0.00 | 0.00 | 54 | 1017.8 |
| 20260905131520 | 71 | 83 | 0.9 | 3.5 | 0.00 | 0.00 | 0.00 | 54 | 1018.0 |
| 20260905131027 | 71 | 61 | 1.7 | 7.8 | 0.00 | 0.00 | 0.00 | 54 | 1017.8 |
| 20260905130527 | 72 | 59 | 1.7 | 9.6 | 0.00 | 0.00 | 0.00 | 55 | 1017.9 |
| 20260905130027 | 72 | 168 | 1.7 | 9.6 | 0.00 | 0.00 | 0.00 | 55 | 1018.0 |
| 20260905125023 | 72 | 61 | 0.9 | 5.2 | 0.00 | 0.00 | 0.00 | 57 | 1018.1 |
| 20260905124523 | 72 | 245 | 1.7 | 6.1 | 0.00 | 0.00 | 0.00 | 57 | 1018.0 |
| 20260905124022 | 72 | 144 | 1.7 | 6.1 | 0.00 | 0.00 | 0.00 | 58 | 1017.6 |
| 20260905123517 | 73 | 63 | 0.9 | 5.2 | 0.00 | 0.00 | 0.00 | 58 | 1017.7 |
| 20260905123018 | 73 | 68 | 0.9 | 14.8 | 0.00 | 0.00 | 0.00 | 58 | 1017.9 |
| 20260905122518 | 73 | 226 | 0.9 | 14.8 | 0.00 | 0.00 | 0.00 | 57 | 1018.2 |
| 20260905122018 | 73 | 277 | 0.9 | 2.6 | 0.00 | 0.00 | 0.00 | 57 | 1017.6 |
| 20260905121517 | 74 | 215 | 0.0 | 2.6 | 0.00 | 0.00 | 0.00 | 57 | 1017.6 |
| 20260905121016 | 74 | 286 | 0.0 | 0.0 | 0.00 | 0.00 | 0.00 | 57 | 1017.6 |
| 20260905120516 | 74 | 286 | 0.0 | 0.9 | 0.00 | 0.00 | 0.00 | 56 | 1017.4 |
| 20260905120016 | 74 | 286 | 0.0 | 1.7 | 0.00 | 0.00 | 0.00 | 56 | 1017.4 |
| 20260905115516 | 75 | 286 | 0.9 | 7.0 | 0.00 | 0.00 | 0.00 | 56 | 1017.1 |
| 20260905115016 | 75 | 339 | 1.7 | 7.0 | 0.00 | 0.00 | 0.00 | 55 | 1017.6 |
| 20260905114515 | 75 | 261 | 1.7 | 7.0 | 0.00 | 0.00 | 0.00 | 55 | 1017.5 |
| 20260905113515 | 76 | 309 | 2.6 | 9.6 | 0.00 | 0.00 | 0.00 | 54 | 1017.1 |
| 20260905113017 | 76 | 304 | 3.5 | 9.6 | 0.00 | 0.00 | 0.00 | 54 | 1017.4 |
| 20260905112518 | 76 | 244 | 2.6 | 7.8 | 0.00 | 0.00 | 0.00 | 54 | 1016.9 |
| 20260905112015 | 76 | 263 | 2.6 | 7.8 | 0.00 | 0.00 | 0.00 | 54 | 1017.0 |
| 20260905111015 | 76 | 291 | 2.6 | 12.2 | 0.00 | 0.00 | 0.00 | 53 | 1016.6 |
| 20260905110516 | 76 | 283 | 2.6 | 12.2 | 0.00 | 0.00 | 0.00 | 52 | 1016.6 |
| 20260905110014 | 75 | 267 | 1.7 | 8.7 | 0.00 | 0.00 | 0.00 | 51 | 1016.7 |
| 20260905105513 | 75 | 283 | 0.9 | 8.7 | 0.00 | 0.00 | 0.00 | 52 | 1016.4 |
| 20260905105010 | 75 | 238 | 0.0 | 0.0 | 0.00 | 0.00 | 0.00 | 53 | 1015.3 |
| 20260905104507 | 75 | 238 | 0.0 | 0.0 | 0.00 | 0.00 | 0.00 | 53 | 1015.2 |
| 20260905104006 | 75 | 238 | 0.0 | 0.0 | 0.00 | 0.00 | 0.00 | 54 | 1015.1 |
| 20260905103506 | 75 | 238 | 0.0 | 0.0 | 0.00 | 0.00 | 0.00 | 54 | 1015.2 |
| 20260905103006 | 75 | 238 | 0.0 | 0.0 | 0.00 | 0.00 | 0.00 | 54 | 1015.0 |
| 20260905102504 | 75 | 238 | 0.0 | 0.0 | 0.00 | 0.00 | 0.00 | 55 | 1014.9 |
| 20260905102007 | 75 | 238 | 0.0 | 0.0 | 0.00 | 0.00 | 0.00 | 55 | 1015.0 |
| 20260905101508 | 75 | 238 | 0.0 | 0.0 | 0.00 | 0.00 | 0.00 | 55 | 1015.1 |
| 20260905101006 | 75 | 238 | 0.0 | 0.0 | 0.00 | 0.00 | 0.00 | 55 | 1015.2 |
| 20260905100502 | 75 | 238 | 0.0 | 0.0 | 0.00 | 0.00 | 0.00 | 54 | 1015.3 |
| 20260905100001 | 75 | 238 | 0.0 | 0.0 | 0.00 | 0.00 | 0.00 | 55 | 1015.3 |
| 20260905095000 | 75 | 238 | 0.0 | 0.0 | 0.00 | 0.00 | 0.00 | 55 | 1015.3 |
| 20260905094458 | 75 | 238 | 0.0 | 0.0 | 0.00 | 0.00 | 0.00 | 55 | 1015.2 |
| 20260905093955 | 75 | 238 | 0.0 | 0.0 | 0.00 | 0.00 | 0.00 | 55 | 1015.2 |
| 20260905093454 | 75 | 238 | 0.0 | 0.0 | 0.00 | 0.00 | 0.00 | 55 | 1015.2 |
| 20260905092949 | 75 | 238 | 0.0 | 0.0 | 0.00 | 0.00 | 0.00 | 55 | 1015.1 |
| 20260905092450 | 75 | 238 | 0.0 | 0.0 | 0.00 | 0.00 | 0.00 | 55 | 1015.1 |
| 20260905091948 | 75 | 238 | 0.0 | 0.0 | 0.00 | 0.00 | 0.00 | 55 | 1015.1 |
| 20260905091444 | 75 | 238 | 0.0 | 0.0 | 0.00 | 0.00 | 0.00 | 55 | 1015.1 |
| 20260905090944 | 75 | 238 | 0.0 | 0.0 | 0.00 | 0.00 | 0.00 | 55 | 1015.2 |
| 20260905090443 | 75 | 238 | 0.0 | 0.0 | 0.00 | 0.00 | 0.00 | 55 | 1015.2 |
| 20260905085939 | 75 | 238 | 0.0 | 0.0 | 0.00 | 0.00 | 0.00 | 55 | 1015.1 |
| 20260905085437 | 75 | 238 | 0.0 | 0.0 | 0.00 | 0.00 | 0.00 | 55 | 1015.1 |
| 20260905084936 | 75 | 238 | 0.0 | 0.0 | 0.00 | 0.00 | 0.00 | 55 | 1015.1 |
| 20260905084433 | 76 | 238 | 0.0 | 0.0 | 0.00 | 0.00 | 0.00 | 55 | 1015.0 |
| 20260905083430 | 76 | 238 | 0.0 | 0.0 | 0.00 | 0.00 | 0.00 | 56 | 1015.0 |
| 20260905082929 | 76 | 238 | 0.0 | 0.0 | 0.00 | 0.00 | 0.00 | 56 | 1015.0 |
| 20260905081929 | 76 | 238 | 0.0 | 0.0 | 0.00 | 0.00 | 0.00 | 56 | 1014.9 |
| 20260905080925 | 76 | 238 | 0.0 | 0.0 | 0.00 | 0.00 | 0.00 | 57 | 1014.9 |
| 20260905080430 | 76 | 238 | 0.0 | 0.0 | 0.00 | 0.00 | 0.00 | 57 | 1015.0 |
| 20260905075930 | 76 | 238 | 0.0 | 0.0 | 0.00 | 0.00 | 0.00 | 57 | 1015.0 |
| 20260905075424 | 76 | 238 | 0.0 | 0.0 | 0.00 | 0.00 | 0.00 | 57 | 1015.1 |
| 20260905074919 | 76 | 238 | 0.0 | 0.0 | 0.00 | 0.00 | 0.00 | 58 | 1015.1 |
| 20260905074417 | 76 | 238 | 0.0 | 0.0 | 0.00 | 0.00 | 0.00 | 58 | 1015.0 |
| 20260905073915 | 76 | 238 | 0.0 | 0.0 | 0.00 | 0.00 | 0.00 | 58 | 1015.1 |
| 20260905073415 | 76 | 238 | 0.0 | 0.0 | 0.00 | 0.00 | 0.00 | 58 | 1015.1 |
| 20260905072913 | 76 | 238 | 0.0 | 0.0 | 0.00 | 0.00 | 0.00 | 58 | 1015.2 |
| 20260905072413 | 76 | 238 | 0.0 | 0.0 | 0.00 | 0.00 | 0.00 | 58 | 1015.3 |
| 20260905071913 | 76 | 238 | 0.0 | 0.0 | 0.00 | 0.00 | 0.00 | 58 | 1015.3 |
| 20260905071418 | 76 | 238 | 0.0 | 0.0 | 0.00 | 0.00 | 0.00 | 58 | 1015.4 |
| 20260905070920 | 76 | 238 | 0.0 | 0.0 | 0.00 | 0.00 | 0.00 | 58 | 1015.3 |
| 20260905070421 | 76 | 238 | 0.0 | 0.0 | 0.00 | 0.00 | 0.00 | 58 | 1015.4 |
| 20260905065913 | 76 | 238 | 0.0 | 0.0 | 0.00 | 0.00 | 0.00 | 59 | 1015.5 |
| 20260905065412 | 76 | 238 | 0.0 | 0.0 | 0.00 | 0.00 | 0.00 | 59 | 1015.5 |
| 20260905064912 | 76 | 238 | 0.0 | 0.0 | 0.00 | 0.00 | 0.00 | 59 | 1015.6 |
| 20260905064412 | 76 | 238 | 0.0 | 0.0 | 0.00 | 0.00 | 0.00 | 59 | 1015.6 |
| 20260905063400 | 76 | 238 | 0.0 | 0.0 | 0.00 | 0.00 | 0.00 | 59 | 1015.8 |
| 20260905062348 | 77 | 238 | 0.0 | 0.0 | 0.00 | 0.00 | 0.00 | 59 | 1016.0 |
| 20260905061337 | 77 | 238 | 0.0 | 0.0 | 0.00 | 0.00 | 0.00 | 59 | 1016.1 |
| 20260905060823 | 77 | 238 | 0.0 | 0.0 | 0.00 | 0.00 | 0.00 | 60 | 1016.1 |
| 20260905060322 | 77 | 238 | 0.0 | 0.0 | 0.00 | 0.00 | 0.00 | 60 | 1016.2 |
| 20260905055812 | 77 | 238 | 0.0 | 0.0 | 0.00 | 0.00 | 0.00 | 60 | 1016.2 |
| 20260905055306 | 77 | 238 | 0.0 | 0.0 | 0.00 | 0.00 | 0.00 | 60 | 1016.3 |
| 20260905054809 | 77 | 238 | 0.0 | 0.0 | 0.00 | 0.00 | 0.00 | 60 | 1016.4 |
| 20260905054301 | 77 | 238 | 0.0 | 0.0 | 0.00 | 0.00 | 0.00 | 60 | 1016.4 |
| 20260905053801 | 77 | 238 | 0.0 | 0.0 | 0.00 | 0.00 | 0.00 | 60 | 1016.5 |
| 20260905052802 | 77 | 238 | 0.0 | 0.0 | 0.00 | 0.00 | 0.00 | 60 | 1016.5 |